Wind_Speed
11 10 12 11 5 8 13 12 12 20 24 22 4 4 4 6 7 8 8 6 7 9 10 7 7 9 10 10 11 13 14 15 17 17 17 18 20 21 22 22 23 23 22 22 22 23 23 24 25
12 13 13 14 6 6 11 13 22 29 24 22 5 5 3 7 10 10 9 8 8 9 7 3 1 3 6 7 8 9 10 11 12 13 13 14 16 17 18 19 20 20 21 22 23 25 25 26 27
13 14 14 13 9 9 13 13 21 26 26 17 15 8 6 8 7 7 8 8 7 8 6 5 4 2 0 3 4 6 6 7 7 9 11 13 14 16 17 18 19 20 21 22 23 24 25 26 27
16 16 16 13 12 10 15 15 19 24 28 23 14 4 10 9 9 8 6 7 8 7 5 6 3 1 2 4 5 8 8 9 11 12 14 16 16 18 19 19 21 23 24 24 25 27 27 28 29
17 17 16 14 14 12 16 19 19 16 21 17 13 14 12 7 6 7 7 10 8 5 5 6 6 4 5 6 7 9 10 12 14 15 18 19 21 22 23 26 27 28 29 30 30 32 31 32 32
18 17 16 14 15 13 18 20 21 12 22 10 10 11 11 9 10 11 10 8 7 5 4 4 4 5 6 6 6 6 7 9 11 14 17 19 20 23 23 24 26 26 27 30 31 32 32 32 33
18 15 17 16 18 16 19 22 14 14 15 12 7 11 10 10 12 13 12 10 7 6 3 1 2 4 5 7 8 8 9 10 13 15 17 18 18 20 21 22 24 24 26 27 28 29 30 30 31
18 15 17 18 17 17 15 20 14 10 11 11 11 13 13 9 8 10 12 10 10 7 6 5 5 7 7 8 10 11 13 15 16 18 21 22 23 26 28 27 28 28 29 29 29 30 30 30 30
19 15 17 19 20 16 13 19 16 7 4 4 14 19 12 12 11 11 13 11 8 7 6 6 8 9 11 12 14 16 17 18 19 19 21 23 24 26 27 28 29 30 31 31 31 30 30 31 32
20 15 18 22 24 19 17 23 17 14 10 10 12 10 14 18 16 14 13 11 9 9 8 8 10 11 13 15 16 18 21 24 27 28 29 29 29 29 29 30 31 32 33 33 34 34 35 35 36
22 19 23 28 29 28 24 22 20 17 9 10 9 8 11 20 19 16 12 10 10 10 8 9 9 11 12 14 16 18 21 25 27 28 30 33 35 36 36 36 36 36 37 38 40 41 41 41 42
27 25 25 30 31 32 32 29 22 17 12 11 14 12 15 16 17 18 15 12 11 11 11 11 11 13 14 16 18 20 24 27 29 31 32 33 34 35 36 38 41 42 43 44 44 45 45 45 47
28 27 28 32 33 36 37 33 26 17 14 17 16 13 15 15 15 16 15 13 13 13 12 13 14 15 17 19 21 24 27 31 34 36 37 38 40 41 42 42 42 43 45 46 47 48 48 49 50
27 28 29 32 36 37 36 30 23 20 19 20 20 16 15 16 14 16 16 17 18 16 15 14 15 18 20 21 24 27 30 34 37 39 41 42 42 42 43 44 47 48 50 51 52 51 50 51 50
22 23 27 28 29 31 30 26 25 21 21 20 15 17 17 17 14 14 18 18 19 20 20 20 22 23 25 26 27 30 34 37 39 40 43 44 43 44 46 48 50 52 53 54 55 54 54 54 52
17 19 23 24 26 28 24 21 20 18 11 8 10 15 15 15 17 18 20 20 21 22 22 23 25 27 28 30 32 35 37 40 43 44 44 44 46 48 51 53 54 55 55 56 56 56 55 53 50
16 16 22 22 27 26 21 18 17 13 10 8 13 17 15 14 15 18 18 20 21 21 22 23 25 27 30 33 36 39 41 43 44 42 43 46 49 51 53 54 55 55 56 57 58 56 54 51 50
19 19 19 21 22 21 19 17 15 13 15 15 14 15 15 15 17 18 19 19 20 23 24 26 27 29 32 35 38 40 41 43 41 42 45 48 50 51 51 51 55 58 59 60 60 56 51 47 47
24 25 23 21 20 22 20 21 19 14 15 17 18 18 21 21 21 22 21 22 22 25 27 28 30 32 35 37 38 40 42 39 42 45 47 49 50 49 49 54 56 57 61 58 52 46 40 39 39
28 28 22 21 25 24 20 23 20 24 28 25 25 28 17 25 26 21 24 24 25 26 29 29 31 34 36 35 39 41 38 40 44 45 46 48 48 47 51 53 51 51 48 39 32 29 26 26 26
28 26 24 23 26 28 29 26 25 28 27 20 20 21 24 15 27 21 11 23 28 26 25 28 30 32 34 37 38 37 37 40 42 43 45 46 44 47 49 46 41 40 36 28 23 19 17 18 17
27 23 28 31 31 30 29 28 26 21 26 14 15 21 20 18 11 17 20 28 31 21 24 29 30 33 35 35 33 35 37 41 42 43 44 41 40 43 43 39 34 32 29 23 19 15 12 10 8
25 29 31 34 33 31 25 24 26 22 19 15 16 22 22 25 19 17 25 23 16 22 30 30 30 30 29 29 32 36 38 39 39 41 40 36 36 37 36 33 28 25 23 20 17 14 10 7 9
26 30 32 35 35 34 28 29 32 29 21 17 20 27 25 25 18 21 21 20 19 25 29 29 27 26 27 30 33 36 36 36 37 40 36 33 33 32 30 27 24 21 20 17 15 12 12 11 9
29 29 36 37 38 38 32 32 33 30 26 24 25 25 24 17 11 16 18 21 26 29 27 26 25 26 29 31 33 34 34 35 37 38 33 30 29 27 25 22 20 18 17 16 15 13 11 10 9
35 34 36 40 39 37 38 39 34 31 34 31 31 20 23 12 13 17 22 26 28 26 25 25 24 25 28 30 32 32 33 34 38 37 31 28 26 23 20 19 18 17 16 15 14 14 13 12 11
30 34 30 31 32 34 38 41 42 40 40 36 29 20 10 8 11 21 24 27 27 29 29 28 27 27 29 32 30 31 33 34 37 35 30 27 23 20 18 17 16 16 16 16 15 15 15 17 19
36 32 30 31 35 35 37 39 39 35 32 30 23 20 21 20 19 22 25 22 28 33 32 29 27 28 30 31 30 32 32 34 36 33 29 26 23 20 18 18 15 14 13 15 15 17 19 21 22
36 34 32 30 35 36 37 39 34 33 34 32 31 25 19 22 22 23 19 24 32 29 23 24 27 28 29 29 30 31 32 34 36 34 30 26 24 20 18 19 14 14 15 16 18 19 21 22 24
43 39 33 34 37 38 37 36 31 29 32 32 29 26 26 20 20 15 16 27 30 29 24 25 28 28 29 30 31 31 33 35 37 34 31 27 24 22 19 19 18 17 18 18 20 21 23 25 27
Wind_Direction
247 246 251 248 279 342 340 344 329 342 337 292 99 48 23 1 2 346 329 290 297 289 290 312 265 259 278 270 277 283 283 286 286 287 284 285 286 286 287 289 291 292 290 287 285 282 278 276 271
237 243 244 249 262 320 322 12 3 356 341 311 85 78 34 31 14 356 332 333 318 296 302 327 21 271 282 297 295 286 285 284 286 288 291 292 292 289 288 288 288 288 288 287 286 286 282 279 277
229 242 243 246 263 298 317 345 4 359 349 331 63 33 51 55 26 344 330 323 310 305 318 350 27 72 333 279 287 291 299 305 309 302 295 293 292 289 290 291 290 290 291 291 290 288 287 285 282
229 232 247 242 267 283 294 324 333 8 13 23 17 355 42 41 1 355 349 327 316 321 348 354 348 344 270 278 276 277 282 291 292 294 294 288 287 288 289 289 289 287 285 282 282 284 281 279 279
234 233 241 248 261 265 287 304 348 4 11 31 358 11 18 24 17 345 340 330 316 323 343 342 347 337 309 301 290 284 286 286 285 285 284 286 284 283 287 283 283 282 280 280 281 280 278 278 278
234 234 240 248 256 265 279 296 314 355 345 351 329 10 1 355 7 350 342 320 313 341 356 344 336 329 334 329 324 324 314 304 296 292 291 288 287 285 284 284 284 284 282 280 280 281 281 279 278
231 233 245 252 254 276 283 295 305 357 18 43 29 4 353 344 355 348 333 332 346 0 23 11 347 334 337 331 324 322 316 317 312 310 302 295 294 293 295 294 292 289 285 285 284 284 284 283 282
229 227 241 250 247 268 281 292 292 39 62 57 36 14 354 347 342 331 324 337 351 356 1 353 8 356 356 340 333 328 323 321 317 313 308 305 302 302 300 298 293 289 288 287 286 286 286 286 284
229 223 233 239 251 265 285 285 286 276 58 77 8 334 343 344 321 329 334 345 334 314 324 341 346 351 352 349 346 339 330 324 319 313 309 307 303 299 298 295 293 291 289 288 287 286 285 283 281
232 226 228 241 252 256 272 275 276 278 313 279 350 0 4 344 328 326 335 334 319 307 308 322 331 334 341 342 339 333 328 323 319 317 313 311 308 305 301 297 293 291 288 287 288 286 285 282 280
232 239 241 240 243 256 269 269 276 282 296 319 346 334 337 338 323 317 318 311 316 302 296 307 321 320 324 322 321 319 316 313 312 311 308 306 305 305 305 304 301 298 294 292 290 289 287 285 283
236 239 246 244 242 248 255 262 268 281 304 318 328 324 316 310 310 304 305 301 316 307 307 309 306 308 312 314 311 309 309 309 309 307 304 302 301 301 302 301 300 298 296 293 291 289 286 285 284
234 235 229 230 231 235 245 260 273 285 302 304 314 319 304 298 295 295 299 299 298 298 302 299 300 307 310 306 305 307 308 309 310 308 307 305 306 306 304 300 297 294 292 291 290 289 288 286 284
229 233 229 227 233 237 246 262 278 289 299 302 313 319 312 297 299 311 309 303 300 308 317 310 303 306 306 305 305 308 308 308 308 307 305 305 306 304 304 302 300 298 295 293 291 289 286 283 281
231 230 232 232 239 245 255 266 275 292 291 302 308 304 298 300 307 307 306 303 313 322 325 320 314 311 311 309 311 312 309 307 306 306 310 310 308 306 304 301 300 299 297 294 292 290 286 284 282
220 231 239 245 245 250 263 265 279 282 297 305 301 292 292 301 314 303 304 313 314 315 318 316 311 311 311 310 310 308 307 308 311 313 312 310 309 308 306 305 303 301 298 295 291 288 285 282 279
216 224 241 249 248 249 258 264 271 274 298 295 307 313 317 298 295 296 304 305 304 304 304 301 301 304 305 306 307 306 307 309 310 312 311 312 311 310 309 308 307 305 300 295 291 287 284 280 276
226 229 230 234 234 240 242 242 247 260 278 294 300 300 305 298 285 287 294 292 288 285 285 288 293 298 302 303 303 304 305 309 313 313 314 312 312 312 313 312 309 305 301 295 289 283 278 275 273
232 236 235 222 229 229 236 242 245 273 280 280 278 268 269 276 272 270 275 276 273 274 280 286 295 299 300 300 301 302 309 314 316 317 316 315 317 315 315 316 314 311 307 301 286 278 275 272 270
233 237 232 231 221 232 242 258 269 261 263 269 274 283 279 312 298 266 262 269 272 281 287 294 298 299 297 301 305 311 315 316 317 316 317 319 317 317 321 321 320 327 329 326 305 289 279 275 272
232 232 213 215 211 218 236 248 255 264 262 266 296 304 316 326 342 340 276 269 278 285 298 298 300 300 302 306 309 311 314 315 314 317 320 320 318 322 323 325 331 342 343 337 324 308 296 290 282
226 222 211 217 223 237 239 244 241 265 264 273 302 304 302 312 340 329 299 283 274 306 310 301 302 299 300 306 310 312 315 316 319 322 321 318 319 322 327 332 339 342 344 345 344 337 327 314 310
229 220 217 217 226 235 250 254 254 274 271 280 299 312 307 309 309 318 314 302 304 316 305 305 305 305 308 312 313 316 317 317 320 320 320 319 321 325 331 337 347 354 357 360 359 357 350 345 334
230 229 225 221 225 231 236 250 259 263 274 285 298 298 301 307 305 312 308 298 296 308 310 310 309 310 313 315 316 315 316 320 320 323 321 318 320 326 334 341 346 360 360 3 3 355 346 340 338
244 235 227 229 230 240 239 249 259 268 269 278 287 295 301 298 303 302 309 306 310 316 313 303 306 314 315 312 315 317 319 320 323 325 319 317 319 324 331 337 345 352 353 354 357 358 358 354 355
241 238 230 235 237 243 245 248 254 257 264 272 284 286 297 281 312 307 302 314 316 317 317 305 309 314 311 315 320 320 320 322 326 325 318 315 317 321 331 338 348 354 355 358 1 359 354 352 351
232 233 238 243 241 242 243 247 248 255 263 273 279 285 306 281 287 295 299 314 314 323 318 311 313 317 319 321 320 321 321 323 327 323 316 312 316 319 324 330 341 346 349 352 354 353 350 350 347
236 233 235 237 239 241 240 245 250 255 259 268 276 275 297 307 295 293 304 308 325 320 314 308 316 321 321 320 320 319 321 325 327 322 315 310 308 307 312 315 327 337 340 344 349 348 344 343 339
225 236 238 241 235 243 249 253 258 260 263 259 274 288 296 306 312 298 301 313 322 317 311 316 321 323 320 318 319 321 324 326 327 322 317 307 305 302 305 307 318 324 330 336 337 337 333 334 330
214 228 230 230 234 240 250 255 259 266 266 266 276 284 286 303 311 302 304 323 319 317 318 322 324 323 320 320 321 324 325 326 326 321 316 302 300 297 301 302 308 314 322 325 326 324 325 324 324
Height
5890 5890 5891 5891 5894 5891 5888 5889 5886 5882 5881 5878 5877 5876 5874 5876 5877 5880 5878 5879 5878 5878 5877 5876 5876 5876 5877 5877 5877 5877 5878 5879 5879 5880 5879 5879 5879 5878 5877 5877 5876 5875 5874 5874 5874 5873 5873 5872 5872
5889 5889 5889 5890 5893 5890 5886 5889 5885 5882 5881 5879 5877 5877 5876 5876 5877 5878 5878 5878 5877 5877 5876 5874 5873 5875 5876 5876 5877 5877 5877 5877 5877 5877 5876 5876 5876 5875 5874 5873 5872 5872 5871 5870 5869 5869 5868 5867 5867
5887 5887 5888 5890 5891 5889 5887 5886 5884 5883 5879 5880 5881 5881 5877 5877 5878 5879 5878 5878 5877 5875 5874 5874 5874 5873 5874 5875 5875 5876 5876 5876 5876 5875 5874 5873 5872 5872 5871 5870 5869 5868 5867 5867 5866 5865 5863 5862 5861
5886 5886 5887 5889 5889 5889 5886 5883 5882 5883 5881 5881 5883 5882 5878 5878 5877 5877 5876 5876 5875 5874 5873 5872 5873 5873 5874 5874 5874 5875 5874 5874 5874 5873 5872 5871 5869 5869 5869 5868 5866 5864 5863 5862 5861 5860 5859 5857 5856
5883 5885 5886 5888 5888 5887 5885 5881 5884 5882 5882 5883 5884 5881 5881 5879 5878 5879 5876 5876 5874 5872 5873 5874 5873 5872 5872 5872 5872 5872 5872 5872 5870 5869 5869 5868 5866 5865 5865 5863 5861 5860 5859 5857 5856 5855 5853 5852 5850
5882 5883 5885 5887 5886 5885 5883 5885 5885 5883 5882 5882 5881 5880 5877 5876 5876 5877 5877 5876 5875 5874 5873 5873 5872 5871 5871 5871 5870 5870 5869 5869 5868 5867 5866 5864 5862 5861 5860 5858 5857 5855 5853 5852 5850 5849 5847 5846 5845
5880 5882 5883 5884 5883 5882 5883 5884 5884 5881 5880 5881 5882 5880 5879 5876 5874 5876 5876 5875 5876 5875 5874 5872 5872 5871 5871 5870 5869 5869 5868 5867 5866 5864 5863 5861 5859 5858 5856 5855 5853 5850 5849 5847 5846 5843 5842 5840 5839
5878 5881 5881 5880 5879 5879 5880 5883 5882 5882 5881 5883 5883 5880 5879 5877 5876 5877 5877 5875 5873 5872 5872 5871 5870 5869 5868 5867 5867 5866 5865 5865 5864 5861 5858 5857 5856 5853 5851 5850 5848 5846 5843 5841 5840 5838 5836 5835 5833
5876 5880 5878 5877 5875 5876 5876 5880 5879 5880 5879 5879 5879 5878 5879 5878 5877 5875 5874 5872 5873 5872 5871 5869 5868 5866 5866 5865 5863 5862 5861 5860 5860 5858 5855 5853 5852 5850 5847 5845 5842 5840 5838 5836 5834 5833 5831 5829 5827
5874 5878 5876 5874 5871 5872 5874 5877 5879 5878 5875 5876 5878 5876 5876 5876 5875 5874 5872 5871 5871 5871 5870 5868 5867 5866 5865 5864 5863 5860 5858 5856 5853 5852 5849 5847 5845 5843 5841 5839 5837 5834 5832 5829 5827 5825 5824 5822 5819
5871 5875 5873 5868 5868 5869 5870 5872 5874 5875 5874 5874 5877 5877 5876 5876 5873 5873 5872 5872 5870 5869 5867 5867 5866 5865 5864 5863 5862 5860 5858 5854 5851 5849 5846 5842 5838 5835 5833 5830 5828 5826 5823 5821 5818 5816 5814 5811 5810
5866 5868 5869 5865 5865 5865 5865 5868 5870 5871 5872 5871 5875 5875 5875 5874 5872 5871 5870 5869 5866 5866 5865 5863 5863 5863 5862 5861 5860 5858 5855 5851 5848 5845 5842 5838 5834 5831 5828 5824 5821 5817 5814 5811 5808 5806 5803 5800 5798
5862 5861 5860 5859 5861 5861 5862 5863 5866 5867 5869 5869 5872 5873 5871 5869 5868 5869 5867 5865 5865 5864 5862 5861 5860 5859 5858 5857 5855 5853 5849 5846 5842 5838 5834 5830 5827 5823 5819 5816 5813 5809 5804 5801 5798 5795 5792 5789 5786
5857 5856 5854 5857 5859 5860 5860 5861 5863 5865 5865 5866 5866 5866 5867 5864 5862 5860 5861 5862 5862 5860 5858 5857 5856 5855 5854 5852 5850 5847 5844 5840 5835 5832 5828 5825 5820 5814 5810 5805 5802 5798 5794 5789 5785 5782 5780 5776 5774
5854 5854 5852 5856 5858 5858 5858 5860 5862 5862 5863 5864 5863 5861 5862 5861 5859 5859 5859 5857 5855 5853 5852 5852 5850 5848 5846 5844 5843 5840 5836 5833 5830 5825 5820 5815 5811 5806 5802 5797 5791 5787 5782 5777 5772 5768 5765 5762 5759
5851 5853 5852 5854 5855 5856 5857 5860 5859 5859 5860 5862 5862 5863 5861 5857 5855 5855 5854 5852 5850 5849 5847 5846 5846 5844 5842 5840 5837 5834 5830 5825 5821 5817 5812 5808 5803 5797 5791 5785 5780 5774 5768 5762 5756 5752 5749 5747 5745
5849 5852 5850 5852 5851 5852 5854 5857 5858 5857 5858 5859 5860 5857 5855 5854 5854 5854 5852 5850 5849 5847 5846 5845 5843 5841 5838 5836 5833 5829 5824 5820 5816 5811 5806 5800 5794 5788 5781 5774 5767 5760 5753 5746 5740 5736 5733 5732 5728
5846 5849 5849 5846 5848 5848 5849 5853 5853 5853 5855 5857 5856 5853 5853 5851 5850 5849 5849 5847 5845 5845 5844 5842 5840 5836 5833 5831 5827 5823 5819 5814 5809 5804 5799 5793 5786 5779 5771 5763 5756 5747 5738 5728 5722 5717 5717 5715 5714
5841 5843 5844 5845 5841 5842 5844 5846 5848 5849 5849 5850 5851 5850 5847 5847 5847 5846 5845 5845 5844 5842 5840 5838 5834 5831 5828 5824 5821 5817 5813 5806 5801 5796 5790 5784 5776 5769 5762 5753 5742 5732 5719 5707 5699 5698 5702 5701 5702
5835 5838 5841 5843 5842 5839 5842 5842 5843 5843 5841 5845 5847 5847 5844 5845 5826 5836 5840 5841 5839 5836 5836 5833 5829 5826 5822 5818 5814 5810 5805 5799 5794 5789 5783 5775 5768 5761 5753 5742 5732 5718 5705 5694 5689 5690 5692 5692 5694
5830 5834 5837 5840 5836 5835 5836 5837 5838 5838 5839 5843 5846 5846 5844 5844 5839 5836 5835 5836 5835 5830 5830 5827 5823 5820 5816 5812 5808 5804 5799 5794 5789 5783 5776 5769 5761 5754 5745 5735 5724 5713 5703 5695 5690 5689 5689 5689 5689
5825 5830 5832 5833 5831 5831 5834 5833 5833 5834 5836 5840 5841 5841 5840 5839 5837 5835 5832 5830 5829 5827 5827 5822 5817 5814 5810 5806 5802 5798 5793 5788 5782 5775 5769 5763 5757 5749 5740 5730 5720 5711 5704 5697 5693 5691 5689 5688 5688
5823 5821 5822 5825 5826 5826 5827 5828 5830 5830 5831 5835 5837 5836 5836 5836 5834 5831 5830 5827 5824 5824 5821 5817 5812 5808 5804 5800 5796 5791 5787 5782 5776 5770 5764 5758 5752 5745 5736 5728 5719 5711 5705 5700 5695 5694 5692 5691 5689
5819 5817 5817 5819 5820 5820 5824 5825 5824 5827 5830 5831 5833 5833 5832 5831 5829 5828 5826 5824 5821 5819 5816 5811 5806 5803 5799 5795 5791 5787 5782 5777 5771 5765 5758 5753 5747 5740 5733 5726 5720 5712 5707 5702 5698 5696 5693 5691 5690
5814 5815 5813 5814 5814 5815 5820 5819 5821 5823 5824 5826 5828 5829 5828 5826 5826 5824 5822 5820 5817 5813 5811 5805 5801 5798 5794 5791 5786 5781 5776 5771 5766 5759 5754 5749 5743 5737 5731 5725 5720 5713 5708 5703 5699 5696 5694 5691 5690
5806 5808 5808 5808 5810 5813 5813 5813 5817 5818 5819 5822 5825 5826 5823 5822 5822 5820 5818 5816 5812 5808 5805 5801 5796 5793 5790 5785 5780 5775 5771 5766 5760 5754 5749 5745 5740 5734 5729 5723 5718 5713 5709 5704 5700 5697 5694 5691 5690
5804 5802 5805 5804 5804 5805 5807 5808 5810 5813 5815 5818 5820 5822 5820 5820 5818 5817 5814 5810 5806 5803 5800 5795 5792 5788 5783 5779 5775 5771 5766 5761 5755 5750 5745 5741 5736 5731 5727 5721 5716 5712 5708 5704 5700 5697 5694 5691 5688
5795 5800 5799 5798 5797 5798 5800 5801 5804 5809 5812 5812 5814 5816 5816 5816 5815 5812 5808 5804 5800 5797 5793 5790 5785 5782 5778 5774 5771 5767 5762 5756 5750 5745 5740 5736 5732 5727 5724 5719 5714 5711 5707 5703 5700 5696 5693 5690 5687
5790 5791 5793 5793 5792 5793 5795 5796 5801 5805 5806 5808 5809 5811 5812 5812 5809 5806 5801 5797 5794 5792 5789 5784 5781 5778 5774 5770 5766 5761 5755 5750 5745 5740 5735 5731 5727 5723 5720 5716 5712 5708 5705 5701 5697 5694 5690 5687 5684
5780 5783 5786 5786 5787 5788 5789 5791 5795 5798 5800 5802 5804 5805 5807 5808 5805 5801 5798 5793 5788 5785 5782 5780 5776 5773 5769 5765 5760 5755 5749 5745 5740 5735 5730 5727 5723 5719 5716 5713 5709 5705 5702 5698 5695 5691 5687 5682 5679